Weather History for Heber, UT

Change the Weather History Date:

Monday, November 4, 2013

  Actual Average (KPVU) Record (KPVU)
Temperature  
Mean Temperature 24 °F -  
Max Temperature 32 °F 49 °F 71 °F (1999)
Min Temperature 17 °F 30 °F 17 °F (2002)
Degree Days  
Heating Degree Days 40    
Moisture  
Dew Point 21 °F    
Average Humidity 83    
Maximum Humidity 93    
Minimum Humidity 69    
Precipitation  
Precipitation 0.00 in - - ()
Sea Level Pressure  
Sea Level Pressure 30.01 in    
Wind  
Wind Speed 1 mph (SE)    
Max Wind Speed 7 mph    
Max Gust Speed -    
Visibility 9 miles    
Events Snow , Thunderstorm    
Averages and records for this station are not official NWS values.
T = Trace of Precipitation, MM = Missing Value Source: NWS Daily Summary

Daily Weather History Graph

Daily Weather History Graph

Search for Another Location

Airport:

Trip Planner

Search our weather history database for the weather conditions in past years. The results will help you decide how hot, cold, wet, or windy it might be!

Date:

Astronomy

Nov. 04, 2013 Rise Set
Actual Time 6:59 AM MST 5:18 PM MST
Civil Twilight 6:30 AM MST 5:47 PM MST
Nautical Twilight 5:58 AM MST 6:19 PM MST
Astronomical Twilight 5:26 AM MST 6:51 PM MST
Moon 8:14 AM MST (11/4) 6:26 PM MST (11/4)
Length of Visible Light 11h 16m
Length of Day
10h 19m
New Moon, 2% of the Moon is Illuminated
Nov 4
New Moon
Nov 9
First Quarter
Nov 17
Full
Nov 25
Last Quarter
Dec 2
New

Hourly Weather History & Observations

Time (MST) Temp. Windchill Dew Point Humidity Pressure Visibility Wind Dir Wind Speed Gust Speed Precip Events Conditions
12:15 AM 19.4 °F - 14.0 °F 80% 30.00 in 10.0 mi Calm Calm - N/A   Clear
12:35 AM 17.6 °F - 14.0 °F 86% 30.01 in 10.0 mi Calm Calm - N/A   Clear
12:55 AM 19.4 °F 12.8 °F 15.8 °F 86% 30.01 in 10.0 mi SE 4.6 mph - N/A   Clear
1:15 AM 19.4 °F - 15.8 °F 86% 30.01 in 10.0 mi Calm Calm - N/A   Clear
1:35 AM 19.4 °F - 17.6 °F 93% 30.02 in 10.0 mi Calm Calm - N/A   Clear
1:55 AM 19.4 °F - 15.8 °F 86% 30.03 in 10.0 mi Calm Calm - N/A   Clear
2:15 AM 19.4 °F - 17.6 °F 93% 30.02 in 10.0 mi Calm Calm - N/A   Clear
2:35 AM 19.4 °F - 17.6 °F 93% 30.01 in 10.0 mi Calm Calm - N/A   Clear
2:55 AM 21.2 °F - 17.6 °F 86% 30.01 in 10.0 mi Calm Calm - N/A   Scattered Clouds
3:15 AM 21.2 °F - 17.6 °F 86% 30.01 in 10.0 mi Calm Calm - N/A   Mostly Cloudy
3:35 AM 21.2 °F - 17.6 °F 86% 30.00 in 10.0 mi Calm Calm - N/A   Scattered Clouds
3:55 AM 19.4 °F - 17.6 °F 93% 30.00 in 10.0 mi Calm Calm - N/A   Mostly Cloudy
4:15 AM 21.2 °F - 17.6 °F 86% 29.99 in 10.0 mi Calm Calm - N/A   Overcast
4:35 AM 21.2 °F - 17.6 °F 86% 29.99 in 10.0 mi Calm Calm - N/A   Overcast
4:55 AM 23.0 °F - 17.6 °F 80% 29.99 in 10.0 mi Calm Calm - N/A   Overcast
5:15 AM 23.0 °F - 19.4 °F 86% 29.99 in 10.0 mi Calm Calm - N/A Thunderstorm Overcast
5:35 AM 23.0 °F - 19.4 °F 86% 29.99 in 10.0 mi Calm Calm - N/A   Overcast
5:55 AM 23.0 °F 17.0 °F 19.4 °F 86% 29.99 in 10.0 mi East 4.6 mph - N/A   Overcast
6:15 AM 23.0 °F 18.4 °F 19.4 °F 86% 30.00 in 10.0 mi East 3.5 mph - N/A   Overcast
6:35 AM 23.0 °F 18.4 °F 19.4 °F 86% 30.00 in 10.0 mi ESE 3.5 mph - N/A   Overcast
6:55 AM 23.0 °F - 17.6 °F 80% 30.00 in 10.0 mi Calm Calm - N/A   Overcast
7:15 AM 23.0 °F - 19.4 °F 86% 30.00 in 10.0 mi Calm Calm - N/A   Overcast
7:35 AM 23.0 °F - 19.4 °F 86% 30.01 in 10.0 mi Calm Calm - N/A   Overcast
7:55 AM 24.8 °F - 21.2 °F 86% 30.02 in 10.0 mi Calm Calm - N/A   Overcast
8:15 AM 24.8 °F - 19.4 °F 80% 30.02 in 10.0 mi Calm Calm - N/A Thunderstorm Overcast
8:35 AM 24.8 °F - 19.4 °F 80% 30.02 in 10.0 mi Calm Calm - N/A   Overcast
8:55 AM 26.6 °F - 19.4 °F 74% 30.01 in 10.0 mi Calm Calm - N/A   Mostly Cloudy
9:15 AM 26.6 °F - 19.4 °F 74% 30.01 in 10.0 mi Calm Calm - N/A Thunderstorm Overcast
9:35 AM 28.4 °F - 19.4 °F 69% 30.00 in 10.0 mi Calm Calm - N/A   Overcast
9:55 AM 28.4 °F - 19.4 °F 69% 30.01 in 10.0 mi Calm Calm - N/A   Overcast
10:15 AM 28.4 °F - 19.4 °F 69% 30.02 in 10.0 mi Calm Calm - N/A   Overcast
10:35 AM 28.4 °F - 19.4 °F 69% 30.02 in 10.0 mi Calm Calm - N/A   Overcast
10:55 AM 28.4 °F - 21.2 °F 74% 30.02 in 10.0 mi Calm Calm - N/A   Overcast
11:15 AM 30.2 °F - 21.2 °F 69% 30.02 in 10.0 mi Calm Calm - N/A   Overcast
11:35 AM 30.2 °F - 23.0 °F 75% 30.02 in 5.0 mi Calm Calm - N/A Snow Light Snow
11:55 AM 30.2 °F - 23.0 °F 75% 30.01 in 7.0 mi Calm Calm - N/A Snow Light Snow
12:15 PM 30.2 °F - 24.8 °F 80% 30.00 in 4.0 mi Calm Calm - N/A Snow Light Snow
12:35 PM 30.2 °F - 24.8 °F 80% 29.99 in 4.0 mi Calm Calm - N/A Snow Light Snow
12:55 PM 32.0 °F 28.7 °F 24.8 °F 75% 29.98 in 10.0 mi ESE 3.5 mph - N/A   Overcast
1:15 PM 32.0 °F - 23.0 °F 69% 29.97 in 10.0 mi Calm Calm - N/A   Overcast
1:35 PM 32.0 °F - 23.0 °F 69% 29.97 in 10.0 mi Calm Calm - N/A Thunderstorm Overcast
1:55 PM 32.0 °F - 23.0 °F 69% 29.97 in 10.0 mi Calm Calm - N/A   Overcast
2:15 PM 32.0 °F 28.7 °F 24.8 °F 75% 29.96 in 10.0 mi SSW 3.5 mph - N/A   Overcast
2:35 PM 32.0 °F 28.7 °F 26.6 °F 80% 29.97 in 10.0 mi SW 3.5 mph - N/A   Overcast
2:55 PM 32.0 °F 26.4 °F 26.6 °F 80% 29.96 in 7.0 mi SSW 5.8 mph - N/A Snow Light Snow
3:15 PM 32.0 °F 26.4 °F 26.6 °F 80% 29.97 in 7.0 mi SW 5.8 mph - N/A   Overcast
3:35 PM 32.0 °F 28.7 °F 26.6 °F 80% 29.97 in 10.0 mi SW 3.5 mph - N/A Snow Light Snow
3:55 PM 32.0 °F 27.5 °F 26.6 °F 80% 29.97 in 10.0 mi WSW 4.6 mph - N/A   Overcast
4:15 PM 32.0 °F - 28.4 °F 87% 29.97 in 10.0 mi Calm Calm - N/A   Overcast
4:35 PM 32.0 °F 28.7 °F 28.4 °F 87% 29.98 in 5.0 mi WNW 3.5 mph - N/A Snow Light Snow
4:55 PM 32.0 °F - 26.6 °F 80% 29.99 in 2.0 mi Calm Calm - N/A Snow Light Snow
5:15 PM 30.2 °F - 26.6 °F 86% 29.99 in 2.0 mi Calm Calm - N/A Snow Light Snow
5:35 PM 30.2 °F - 28.4 °F 93% 30.00 in 2.0 mi Calm Calm - N/A Snow Light Snow
5:55 PM 30.2 °F - 28.4 °F 93% 30.01 in 5.0 mi Calm Calm - N/A Snow Light Snow
6:15 PM 28.4 °F 23.3 °F 26.6 °F 93% 30.01 in 10.0 mi East 4.6 mph - N/A Snow Light Snow
6:35 PM 28.4 °F 24.6 °F 24.8 °F 86% 30.02 in 10.0 mi ESE 3.5 mph - N/A   Clear
6:55 PM 26.6 °F - 24.8 °F 93% 30.03 in 10.0 mi Calm Calm - N/A Thunderstorm Thunderstorm
7:15 PM 26.6 °F - 21.2 °F 80% 30.03 in 10.0 mi Calm Calm - N/A   Clear
7:35 PM 26.6 °F 21.2 °F 23.0 °F 86% 30.04 in 10.0 mi NE 4.6 mph - N/A   Clear
7:55 PM 23.0 °F 17.0 °F 21.2 °F 93% 30.03 in 10.0 mi SSE 4.6 mph - N/A Thunderstorm Clear
8:15 PM 24.8 °F 20.5 °F 21.2 °F 86% 30.03 in 10.0 mi ENE 3.5 mph - N/A   Scattered Clouds
8:35 PM 23.0 °F - 19.4 °F 86% 30.04 in 10.0 mi Calm Calm - N/A   Clear
8:55 PM 21.2 °F - 17.6 °F 86% 30.05 in 10.0 mi Calm Calm - N/A   Clear
9:15 PM 21.2 °F 16.4 °F 17.6 °F 86% 30.05 in 10.0 mi East 3.5 mph - N/A   Scattered Clouds
9:35 PM 19.4 °F 10.4 °F 15.8 °F 86% 30.06 in 10.0 mi ESE 6.9 mph - N/A   Scattered Clouds
9:55 PM 21.2 °F 14.9 °F 17.6 °F 86% 30.07 in 10.0 mi ESE 4.6 mph - N/A   Scattered Clouds
10:15 PM 21.2 °F - 17.6 °F 86% 30.07 in 10.0 mi Calm Calm - N/A   Mostly Cloudy
10:35 PM 21.2 °F - 17.6 °F 86% 30.08 in 10.0 mi Calm Calm - N/A   Scattered Clouds
10:55 PM 21.2 °F - 19.4 °F 93% 30.08 in 10.0 mi Calm Calm - N/A   Mostly Cloudy
11:15 PM 21.2 °F 14.9 °F 19.4 °F 93% 30.09 in 10.0 mi ESE 4.6 mph - N/A   Overcast
11:35 PM 21.2 °F 13.6 °F 19.4 °F 93% 30.09 in 10.0 mi ESE 5.8 mph - N/A   Overcast
11:55 PM 21.2 °F 16.4 °F 17.6 °F 86% 30.10 in 10.0 mi East 3.5 mph - N/A   Scattered Clouds